Home > Weather > Selkirk > Past weeks

Flag for Canada Past Weather in Selkirk, Manitoba, Canada — Yesterday and Last 2 Weeks

Now
54 °F

Cool.


Feels Like: 51 °F
Forecast: 53 / 69 °F
Wind: 8 mph from North

Location: Winnipeg The Forks Man

Current Time: Jun 27, 2016 at 1:07:46 AM

Latest Report: Jun 27, 2016 at 12:00 AM


Visibility: N/A

Pressure: 30.06 "Hg

Humidity: 84%

Dew Point: 49 °F

Location of SelkirkLocation

Past Weather in Selkirk — Graph

°F

Selkirk Temperature Yesterday

Maximum temperature yesterday: 62 °F (at 1:00 PM)
Minimum temperature yesterday: 53 °F (at 10:00 PM)
Average temperature yesterday: 59 °F

High & Low Weather Summary for the Past Weeks

 TemperatureHumidityPressure
High82 °F (Jun 19, 5:00 PM)98% (Jun 13, 6:00 AM)30.19 "Hg (Jun 13, 6:00 AM)
Low53 °F (Jun 13, 6:00 AM)23% (Jun 13, 4:00 PM)29.55 "Hg (Jun 26, 3:00 AM)
Average68 °F62%29.89 "Hg
* Reported Jun 11 11:00 PM — Jun 26 11:00 PM, Selkirk, Weather by CustomWeather, © 2016

Note: Actual official high and low records may vary slightly from our data, if they occured in-between our weather recording intervals... More about our weather records

Advertising

Selkirk Weather History for the Previous 24 Hours

Scroll right to see more
 ConditionsComfort  
Time TempWeatherWind HumidityBarometerVisibility
11:00 PM
Sun, Jun 26
54 °FCool.8 mph83%30.04 "HgN/A
10:00 PM53 °FCool.7 mph91%30.01 "HgN/A
9:00 PM56 °FCool.8 mph79%29.98 "HgN/A
8:00 PM57 °FCool.9 mph78%29.95 "HgN/A
7:00 PM58 °FCool.8 mph77%29.91 "HgN/A
6:00 PM60 °FCool.9 mph68%29.87 "HgN/A
5:00 PM61 °FCool.8 mph68%29.84 "HgN/A
4:00 PM59 °FCool.7 mph75%29.81 "HgN/A
3:00 PM59 °FCool.7 mph85%29.76 "HgN/A
2:00 PM60 °FCool.8 mph86%29.70 "HgN/A
1:00 PM62 °FCool.8 mph80%29.67 "HgN/A
12:00 PM60 °FCool.7 mph86%29.65 "HgN/A
11:00 AM61 °FCool.7 mph81%29.62 "HgN/A
10:00 AM60 °FCool.5 mph90%29.60 "HgN/A
9:00 AM59 °FCool.5 mph91%29.58 "HgN/A
8:00 AM60 °FCool.5 mph91%29.56 "HgN/A
7:00 AM59 °FCool.5 mph91%29.55 "HgN/A
6:00 AM60 °FCool.6 mph82%29.56 "HgN/A
5:00 AM59 °FCool.6 mph82%29.55 "HgN/A
4:00 AM58 °FCool.6 mph83%29.55 "HgN/A
3:00 AM59 °FCool.8 mph78%29.55 "HgN/A
2:00 AM59 °FCool.6 mph73%29.56 "HgN/A
1:00 AM60 °FCool.8 mph70%29.57 "HgN/A
Weather by CustomWeather, © 2016

See weather overviewHow to use our weather pages